Content
SEND FEEDBACK

Canada Flag

CASEY, QUEBEC


Home > North America > Canada > Quebec
Elevation: 393 meters     Latitude: 47 56N     Longitude: 074 05W

WEATHER
 
SELECT A DAY
Number of Records: 179,105;   Date Range: 1/1/95 - 3/22/16
 
SHARE

PRINT THIS DATA

[ ← Previous Day ]
WEATHER ALMANAC - 31 JANUARY, 2013
[ Next Day → ]
[ °F ]   °C
Weather ElementAverageHighLow
Temperature-6.7 °C6.1 °C (4:00 am)-19.1 °C (11:00 pm)
Dewpoint-8.7 °C6.1 °C (4:00 am)-22.5 °C (10:00 pm)
Humidity84.4 %100 % (1:00 am)58 % (4:00 pm)
Barometer980.4 hPa995.3 hPa (11:00 pm)969.5 hPa (7:00 am)
Wind Speed17.5 km/h27.8 km/h (3:00 pm)
Wind Gust51.8 km/h (6:00 pm)
Weather ElementAverage
Wind DirectionSW (228.4 °)

Weather ElementTotal
Precipitation14.48 mm
Heating Degree Days24.8 (Base 18.3)
Averaged from 31 records on 31 January, 2013
WEATHER CONDITIONS BREAKOUT
WIND DIRECTION BREAKOUT
WEATHER BY HOUR - 31 JANUARY, 2013
[ °F ]   °C
Local TimeTemperatureDewpointHumidityBarometerVisibilityWind DirectionWind SpeedGust SpeedPrecipitationEventsConditions
1:00 AM0.6 °C0.6 °C97 %983.1 hPaESE (110°)1.9 km/h
1:00 AM-0.3 °C-0.3 °C100 %983.1 hPaESE (110°)1.9 km/h
2:00 AM0.5 °C0.5 °C100 %980.4 hPaENE (60°)5.6 km/h1.02 mm
3:00 AM3 °C3 °C100 %978.3 hPaEast (80°)1.9 km/h0.25 mm
4:00 AM6.1 °C6.1 °C100 %975.6 hPaESE (120°)5.6 km/h
4:00 AM6.1 °C6.1 °C100 %975.6 hPaESE (120°)5.6 km/h2.03 mm
5:00 AM5.8 °C5.8 °C100 %972.6 hPaNNW (330°)5.6 km/h2.54 mm
6:00 AM3.8 °C3.8 °C100 %970.5 hPaWSW (240°)5.6 km/h2.79 mm
7:00 AM5.6 °C5.6 °C100 %969.5 hPaSW (230°)16.7 km/h
7:00 AM5.6 °C5.6 °C100 %969.5 hPaSW (230°)16.7 km/h31.5 km/h4.06 mm
8:00 AM2.8 °C2.4 °C97 %969.9 hPaWSW (250°)13 km/h1.78 mm
9:00 AM1.6 °C1.3 °C98 %970.2 hPaWSW (240°)9.3 km/h
10:00 AM0 °C-0.6 °C92 %971.9 hPaWSW (250°)22.2 km/h
10:00 AM-0.2 °C-0.8 °C96 %971.9 hPaWSW (250°)22.2 km/h35.2 km/h
11:00 AM-3.1 °C-5.7 °C82 %973.2 hPaWSW (240°)25.9 km/h46.3 km/h
12:00 PM-8.1 °C-10.7 °C82 %976 hPaWSW (240°)24.1 km/h38.9 km/h
1:00 PM-10.6 °C-14.4 °C64 %977.7 hPaWSW (250°)25.9 km/h
1:00 PM-10.7 °C-14.2 °C76 %977.7 hPaWSW (250°)25.9 km/h40.7 km/h
2:00 PM-12.9 °C-17.6 °C69 %979.7 hPaWSW (250°)25.9 km/h50.1 km/h
3:00 PM-14 °C-17.1 °C78 %981.4 hPaWest (260°)27.8 km/h44.4 km/h
4:00 PM-15 °C-19.4 °C58 %983.4 hPaWest (260°)24.1 km/h
4:00 PM-15 °C-19.2 °C71 %983.4 hPaWest (260°)24.1 km/h48.1 km/h
5:00 PM-15.6 °C-18.4 °C80 %985.4 hPaWest (270°)20.4 km/h44.4 km/h
6:00 PM-16.6 °C-20.3 °C74 %988.1 hPaWest (270°)27.8 km/h51.8 km/h
7:00 PM-17.2 °C-20.6 °C65 %989.8 hPaWest (270°)22.2 km/h
7:00 PM-17 °C-20.5 °C75 %989.8 hPaWest (270°)22.2 km/h37 km/h
8:00 PM-17.5 °C-21 °C75 %990.9 hPaWest (270°)18.5 km/h33.3 km/h
9:00 PM-18.1 °C-21.8 °C73 %992.2 hPaWest (270°)24.1 km/h37 km/h
10:00 PM-18.9 °C-22.2 °C62 %993.6 hPaWest (280°)25.9 km/h
10:00 PM-18.8 °C-22.5 °C73 %993.6 hPaWest (280°)25.9 km/h44.4 km/h
11:00 PM-19.1 °C-22 °C78 %995.3 hPaWest (270°)16.7 km/h
Hourly data recorded from CWPK, located 0 kilometers away from Casey, Quebec




STORIES FROM OUR PARTNERS